Погода в Новоишимском

Казахстан     53°12′21″N   66°48′33″E
темп.,
°C
ветер,
м/с
пор.,
м/с
влажн.,
%
обл.,
%
осадки,
мм/ч
давл.,
гПа
погр.,
м
2 марта, вт
вт200:00−21з129935 0.0 101820
03:00−18юз229793 0.1 101837
06:00−18юз339794 0.1 101875
09:00−18юз239799 0.2 101754
12:00−15ююз359488 0.3 1016239
15:00−13ююз469392 0.0 1015332
18:00−13ююз499496 0.1 1015270
21:00−14ююз6139498 0.0 1015351
3 марта, ср
ср300:00−16ююз7139399 0.1 1015367
03:00−18ююз71493100 0.0 1014337
06:00−17ююз8149299 0.0 1014369
09:00−15ююз81592100 0.1 1012453
12:00−13ююз91591100 0.2 1012501
15:00−8ююз91590100 0.1 1010729
18:00−5ююз91788100 0.3 1009799
21:00−3ююз91689100 0.1 1008787
4 марта, чт
чт400:00−3юз81593100 0.2 1008752
03:00−3ююз81593100 0.3 1005704
06:00−1ююз81596100 0.8 1004863
09:00−1юз91596100 1.1 1003898
12:000юз91394100 1.5 1003966
15:000юз91393100 0.4 10021005
18:00−1зюз71195100 1.1 1003756
21:00−6з51289100 0.3 1005406
5 марта, пт
пт500:00−10зюз5119277 0.3 1009222
03:00−12юз512920 0.0 1011219
06:00−12юз714900 0.0 1013294
09:00−12ююз9169167 0.0 1013489
12:00−8юз12198983 0.3 1012830
15:00−4юз132089100 0.2 10111046
18:00−3юз132188100 0.4 10111165
21:00−2юз121990100 0.3 10111094
6 марта, сб
сб600:00−3юз111892100 0.6 1011957
03:00−3юз101793100 0.8 1011875
06:00−4юз91690100 1.1 1012668
09:00−2зюз7129699 0.6 1014564
12:00−4зсз3592100 1.4 1015298
15:00−3зюз3588100 0.1 1017339
18:00−5ююз2395100 0.1 101723
21:00−4ююз6109499 0.1 1015348